157P/Tritton (2016)

Japanese version
Home page
Updated on October 8, 2017

---------------------------------------------------------------------

* Profile

* Pictures

* Orbital Elements

Epoch 2016 June 21.0 TT = JDT 2457560.5
T 2016 June 10.38711 TT                                 MPCW
q   1.3580788            (2000.0)            P               Q
n   0.15663513     Peri.  148.89767     +0.01563404     -0.99382885
a   3.4083428      Node   299.99958     +0.88934342     +0.06401726
e   0.6015428      Incl.    7.28502     +0.45697250     -0.09058699
P   6.29
From 1118 observations 2003 Oct. 6-2017 May 5, mean residual 0".8.
     Nongravitational parameters A1 = +0.56, A2 = +0.0218.

* Magnitudes Graph

        m1 = 13.5 + 5 log d + 12.0 log r  [   ,280]  (             - 2017 Mar. 17)
        m1 =  0.0 + 5 log d + 30   log r  [280,   ]  (2017 Mar. 17 -             )

---------------------------------------------------------------------

The orbital elements are published on M.P.E.C. 2017-J52.
The magnitudes graphs are made with Comet for Windows.

---------------------------------------------------------------------

Copyright(C) Seiichi Yoshida (comet@aerith.net). All rights reserved.